Siberia, Indiana
Current Conditions -  °F | °C
As of 12:15 AM on Sunday 26 Oct 2014 (Local Time) from KHNB Reporting Station
Clear Clear  
Wind Chill: 57°   Ceiling: Unl
Heat Index: 57°   Visibility: 10mi
Dew Point: 50°   Wind: 3mph
Humidity: 77%   Direction: 330°NNW
Pressure: 29.99"   Gusts: NA
Location:  38.1675°N, 86.7159°W
Report Text: KHNB 260515Z AUTO 33003KT 10SM CLR 14/10 A2999 RMK AO1
Loading
Personal Weather Stations






























Interactive Weather Map
Tropical Storm Tracking
New forecast layout! Learn more

10-Day Weather Forecast

Advertisements
Track Severe Weather on mobile